FENGYUN 1C DEB

Satellite information

Favourite Embed

Satellite Type and Status

DEBRISIN ORBIT

Key statistics

Satellite FENGYUN 1C DEB at a glance.

Uptime

9555

Days in orbit

Revolutions

≈ 15.3

Per day

Orbit

SSO

Sun Synchronous Orbit

Inclination

98.9

Latest

Satellite identification and parameters

Extended collection of information and parameters for FENGYUN 1C DEB.

Object identification

Identified? True

Debris? True

Object name: FENGYUN 1C DEB

International designator: 1999-025AGX

Object number (NORAD): 30485

Object ID (CCSDS): 30485

Country: PEOPLES REPUBLIC OF CHINA (PRC)

Current information (Y/N): Y

RCS size: SMALL

Orbital parameters

Period: 93.893 minutes

Inclination: 98.9294 deg

SMA: 6843.061 km

Apoapsis: 482.931 km

Periapsis: 446.92 km

RAAN: 152.9563 deg

Eccentricy: 0.0026312

Argument of periapsis: 179.9321 deg

Mean anomaly: 180.1924 deg

Mean motion: 15.33653269 rev/day

Mean motion (dot): 0.00211693 rev/day2

B* drag term: 0.0062719 1/REarth

Two-line elements (TLE)

Creation date: July 6, 2025, 10:46 p.m.

Reference frame: TEME

Reference center: EARTH

Epoch: July 6, 2025, 8:14 p.m. UTC

TLE line 0: 0 FENGYUN 1C DEB

TLE line 1: 1 30485U 99025AGX 25187.84351053 .00211693 00000-0 62719-2 0 9996

TLE line 2: 2 30485 98.9294 152.9563 0026312 179.9321 180.1924 15.33653269964850

Live tracking on map

Real-time ground track for satellite FENGYUN 1C DEB.

In-orbit conjunctions

A list of the most updated potential collisions computed for object FENGYUN 1C DEB.

Target Orbit TCA Probability of collision Miss distance Type
COSMOS 921 LEO 2024-12-16 22:41:17 0.0001181753 545.0 (m) PAYLOAD
SL-8 DEB * LEO 2024-11-12 20:25:05 0.001492747 115.0 (m) DEBRIS
METEOR 2-6 DEB LEO 2024-07-03 07:51:29 0.0001698743 108.0 (m) DEBRIS

Associated space launch

Chinese polar orbiting meteorological satellite

FENGYUN 1C DEB was lifted into orbit during the mission ‘Long March 4B | Feng Yun 1C’, on board a Long March 4B space rocket.

The launch took place on May 10, 1999, 1:33 a.m. from Launch Complex 7.

For more information about the launch, click the button.

Launch to space Long March 4B | Feng Yun 1C
Long March 4B | Feng Yun 1C

Agency: N/A

Status: Launch Successful

Launch date: May 10, 1999, 1:33 a.m. UTC

Rocket: Long March 4B

Launch pad: Launch Complex 7

Location: Taiyuan Satellite Launch Center, People's Republic of China

...

Latest news about this satellite

There are no fresh news available about this satellite. Check back as we update our databases every day.


Newsletter sign-up

Weekly statistics, charts and insights to help you stay on top of the space industry.